Weather History for KLCK - May, 2013

Change the Weather History Date:

Thursday, May 23, 2013

  Actual Average Record
Temperature  
Mean Temperature 63 °F -  
Max Temperature 75 °F 72 °F 91 °F (2007)
Min Temperature 51 °F 53 °F 41 °F (2006)
Degree Days  
Heating Degree Days 2    
Growing Degree Days 13 (Base 50)    
Moisture  
Dew Point 55 °F    
Average Humidity 74    
Maximum Humidity 87    
Minimum Humidity 44    
Precipitation  
Precipitation 0.00 in - - ()
Sea Level Pressure  
Sea Level Pressure 29.86 in    
Wind  
Wind Speed 10 mph (WSW)    
Max Wind Speed 23 mph    
Max Gust Speed 36 mph    
Visibility 8 miles    
Events Rain    
Averages and records for this station are not official NWS values.
T = Trace of Precipitation, MM = Missing Value Source: NWS Daily Summary

Daily Weather History Graph

Daily Weather History Graph

Search for Another Location

Airport or City:

Trip Planner

Search our weather history database for the weather conditions in past years. The results will help you decide how hot, cold, wet, or windy it might be!

Date:

Astronomy

May. 23, 2013 Rise Set
Actual Time 6:10 AM EDT 8:47 PM EDT
Civil Twilight 5:39 AM EDT 9:18 PM EDT
Nautical Twilight 5:00 AM EDT 9:57 PM EDT
Astronomical Twilight 4:16 AM EDT 10:41 PM EDT
Moon 7:18 PM EDT (5/23) 4:54 AM EDT (5/23)
Length of Visible Light 15h 39m
Length of Day
14h 36m
Waxing Gibbous, 97% of the Moon is Illuminated
May 23
Waxing Gibbous
May 25
Full
May 31
Last Quarter
Jun 8
New
Jun 16
First Quarter

Hourly Weather History & Observations

Time (EDT) Temp. Dew Point Humidity Pressure Visibility Wind Dir Wind Speed Gust Speed Precip Events Conditions
12:15 AM 64.0 °F 59.9 °F 86% 29.80 in 10.0 mi South 6.9 mph - N/A   Scattered Clouds
12:35 AM 64.4 °F 60.1 °F 86% 29.80 in 10.0 mi SSW 8.1 mph - N/A   Clear
12:55 AM 64.4 °F 59.9 °F 85% 29.81 in 10.0 mi SSW 8.1 mph - N/A   Scattered Clouds
1:15 AM 64.0 °F 59.5 °F 85% 29.81 in 10.0 mi South 8.1 mph - N/A   Mostly Cloudy
1:35 AM 63.9 °F 59.4 °F 85% 29.81 in 10.0 mi South 8.1 mph - N/A   Mostly Cloudy
1:55 AM 63.7 °F 59.4 °F 86% 29.81 in 10.0 mi South 8.1 mph - N/A   Scattered Clouds
2:15 AM 63.5 °F 59.4 °F 86% 29.81 in 10.0 mi South 8.1 mph - N/A   Scattered Clouds
2:35 AM 63.5 °F 59.5 °F 87% 29.81 in 10.0 mi SSW 8.1 mph - N/A   Mostly Cloudy
2:55 AM 63.7 °F 59.9 °F 87% 29.81 in 7.0 mi SW 8.1 mph - N/A   Mostly Cloudy
3:15 AM 64.0 °F 60.1 °F 87% 29.81 in 5.0 mi SW 5.8 mph - N/A   Overcast
3:35 AM 63.9 °F 59.9 °F 87% 29.81 in 5.0 mi SW 6.9 mph - N/A   Overcast
3:55 AM 63.7 °F 59.7 °F 87% 29.81 in 5.0 mi WSW 5.8 mph - N/A   Mostly Cloudy
4:15 AM 63.5 °F 59.4 °F 86% 29.80 in 4.0 mi SSW 3.5 mph - N/A   Overcast
4:35 AM 63.5 °F 59.4 °F 86% 29.80 in 4.0 mi SSW 4.6 mph - N/A   Overcast
4:55 AM 63.5 °F 59.4 °F 86% 29.81 in 4.0 mi SSW 5.8 mph - N/A   Overcast
5:15 AM 62.8 °F 58.5 °F 86% 29.81 in 5.0 mi SSW 5.8 mph - N/A   Mostly Cloudy
5:35 AM 61.5 °F 57.4 °F 86% 29.81 in 5.0 mi SSW 6.9 mph - N/A   Clear
5:55 AM 61.5 °F 57.6 °F 87% 29.82 in 5.0 mi SSW 5.8 mph - N/A   Mostly Cloudy
6:15 AM 61.9 °F 57.9 °F 87% 29.83 in 5.0 mi SSW 5.8 mph - N/A   Overcast
6:35 AM 62.1 °F 57.9 °F 86% 29.83 in 5.0 mi SSW 5.8 mph - N/A Rain Light Rain
6:55 AM 62.6 °F 58.6 °F 87% 29.82 in 3.0 mi South 8.1 mph - N/A   Light Drizzle
7:15 AM 63.0 °F 59.2 °F 87% 29.83 in 3.0 mi South 8.1 mph - N/A   Mist
7:35 AM 63.3 °F 59.4 °F 87% 29.83 in 2.5 mi South 8.1 mph - N/A   Mist
7:55 AM 63.5 °F 59.5 °F 87% 29.84 in 3.0 mi SSW 6.9 mph - N/A   Mist
8:15 AM 63.7 °F 59.5 °F 86% 29.84 in 4.0 mi SSW 8.1 mph - N/A   Mist
8:35 AM 64.2 °F 59.5 °F 85% 29.85 in 4.0 mi SSW 10.4 mph - N/A   Haze
8:55 AM 64.4 °F 59.5 °F 84% 29.85 in 4.0 mi SSW 8.1 mph - N/A   Overcast
9:15 AM 64.4 °F 59.2 °F 83% 29.86 in 7.0 mi SW 9.2 mph - N/A   Overcast
9:35 AM 64.6 °F 58.8 °F 82% 29.86 in 7.0 mi SSW 9.2 mph - N/A Rain Light Rain
9:55 AM 64.4 °F 58.3 °F 80% 29.86 in 10.0 mi SW 11.5 mph - N/A Rain Light Rain
10:15 AM 64.9 °F 58.5 °F 79% 29.86 in 10.0 mi SSW 9.2 mph - N/A   Overcast
10:35 AM 67.1 °F 59.7 °F 77% 29.86 in 10.0 mi SW 9.2 mph - N/A   Overcast
10:55 AM 68.5 °F 59.9 °F 74% 29.86 in 10.0 mi SW 9.2 mph - N/A   Overcast
11:15 AM 70.0 °F 60.1 °F 71% 29.86 in 10.0 mi WSW 11.5 mph 16.1 mph N/A   Overcast
11:35 AM 70.7 °F 59.5 °F 68% 29.85 in 10.0 mi SW 10.4 mph 18.4 mph N/A   Mostly Cloudy
11:55 AM 72.3 °F 59.4 °F 64% 29.84 in 10.0 mi SW 11.5 mph 16.1 mph N/A   Mostly Cloudy
12:15 PM 72.7 °F 57.7 °F 59% 29.85 in 10.0 mi WSW 12.7 mph 16.1 mph N/A   Overcast
12:35 PM 71.2 °F 56.7 °F 60% 29.84 in 10.0 mi WSW 17.3 mph - N/A   Mostly Cloudy
12:55 PM 73.4 °F 57.0 °F 56% 29.83 in 10.0 mi WSW 12.7 mph - N/A   Scattered Clouds
1:15 PM 73.4 °F 55.8 °F 54% 29.83 in 10.0 mi West 20.7 mph - N/A   Mostly Cloudy
1:35 PM 74.5 °F 54.5 °F 50% 29.83 in 10.0 mi West 17.3 mph 23.0 mph N/A   Scattered Clouds
1:55 PM 75.0 °F 53.8 °F 47% 29.83 in 10.0 mi West 18.4 mph 24.2 mph N/A   Scattered Clouds
2:15 PM 73.8 °F 51.6 °F 46% 29.83 in 10.0 mi West 19.6 mph 29.9 mph N/A   Overcast
2:35 PM 74.1 °F 52.0 °F 46% 29.83 in 10.0 mi West 17.3 mph 26.5 mph N/A   Overcast
2:55 PM 74.5 °F 52.3 °F 46% 29.83 in 10.0 mi West 17.3 mph 26.5 mph N/A   Overcast
3:15 PM 74.7 °F 52.3 °F 46% 29.83 in 10.0 mi West 21.9 mph 27.6 mph N/A   Overcast
3:35 PM 75.0 °F 52.5 °F 45% 29.84 in 10.0 mi West 23.0 mph 32.2 mph N/A   Scattered Clouds
3:55 PM 74.3 °F 51.3 °F 44% 29.84 in 10.0 mi West 17.3 mph 25.3 mph N/A   Scattered Clouds
4:15 PM 73.6 °F 52.7 °F 48% 29.84 in 10.0 mi West 20.7 mph 26.5 mph N/A   Mostly Cloudy
4:35 PM 73.4 °F 53.1 °F 49% 29.84 in 10.0 mi West 19.6 mph 26.5 mph N/A   Mostly Cloudy
4:55 PM 71.8 °F 52.7 °F 51% 29.85 in 10.0 mi West 20.7 mph 25.3 mph N/A   Scattered Clouds
5:15 PM 71.6 °F 52.7 °F 51% 29.85 in 10.0 mi WNW 13.8 mph 24.2 mph N/A   Scattered Clouds
5:35 PM 71.2 °F 52.3 °F 51% 29.85 in 10.0 mi WNW 18.4 mph 23.0 mph N/A   Mostly Cloudy
5:55 PM 66.6 °F 54.9 °F 66% 29.87 in 3.0 mi WNW 13.8 mph 28.8 mph N/A Rain Heavy Rain
6:15 PM 63.3 °F 55.9 °F 77% 29.88 in 10.0 mi West 11.5 mph 18.4 mph N/A Rain Light Rain
6:35 PM 62.6 °F 56.3 °F 80% 29.88 in 10.0 mi WNW 8.1 mph - N/A   Unknown
6:55 PM 62.8 °F 56.5 °F 80% 29.88 in 10.0 mi West 11.5 mph - N/A   Unknown
7:15 PM 63.0 °F 56.3 °F 79% 29.88 in 10.0 mi WNW 11.5 mph 16.1 mph N/A   Unknown
7:35 PM 62.8 °F 56.1 °F 79% 29.90 in 1.5 mi NNW 18.4 mph 35.7 mph N/A Rain Heavy Rain
7:55 PM 58.8 °F 54.1 °F 84% 29.92 in 7.0 mi NNW 16.1 mph 23.0 mph N/A Rain Light Rain
8:15 PM 57.6 °F 52.2 °F 82% 29.94 in 10.0 mi NNW 17.3 mph 21.9 mph N/A Rain Light Rain
8:35 PM 56.5 °F 51.3 °F 83% 29.95 in 10.0 mi NNW 15.0 mph - N/A   Unknown
8:55 PM 55.4 °F 49.3 °F 80% 29.96 in 10.0 mi North 15.0 mph 20.7 mph N/A   Unknown
9:15 PM 54.5 °F 48.4 °F 80% 29.97 in 10.0 mi NNW 16.1 mph 23.0 mph N/A   Unknown
9:35 PM 53.2 °F 47.3 °F 80% 29.98 in 10.0 mi North 20.7 mph 27.6 mph N/A   Unknown
9:55 PM 52.7 °F 45.9 °F 78% 30.00 in 10.0 mi North 19.6 mph 26.5 mph N/A   Overcast
10:15 PM 52.3 °F 45.0 °F 76% 30.01 in 10.0 mi North 13.8 mph 21.9 mph N/A   Overcast
10:35 PM 52.2 °F 44.8 °F 76% 30.02 in 10.0 mi North 15.0 mph 21.9 mph N/A   Overcast
10:55 PM 51.8 °F 44.2 °F 75% 30.03 in 10.0 mi North 15.0 mph 24.2 mph N/A   Overcast
11:15 PM 51.8 °F 43.7 °F 74% 30.04 in 10.0 mi North 16.1 mph 23.0 mph N/A   Overcast
11:35 PM 51.4 °F 43.7 °F 75% 30.04 in 10.0 mi North 12.7 mph 23.0 mph N/A   Overcast
11:55 PM 51.3 °F 43.7 °F 75% 30.05 in 10.0 mi NNW 18.4 mph 23.0 mph N/A   Overcast